Flag for U.S.A. Weather past 2 weeks in Victorville, California, U.S.A.

Now
55 °F

Clear.


Feels Like: 54 °F
Forecast: 54 / 82 °F
Wind: 7 mph from South

Location: George Air Force Base / Victorvi

Current Time: Oct 20, 2014 at 4:58:22 AM

Latest Report: Oct 20, 2014 at 4:15 AM


Visibility: 10 mi

Pressure: 29.94 "Hg

Humidity: 72%

Dew point: 46 °F

Location of VictorvilleLocation

Historic Weather in Victorville — Graph

°F

Victorville temperature yesterday

Maximum temperature yesterday: 82 °F (at 1:15 PM)
Minimum temperature yesterday: 54 °F (at 2:55 AM)
Average temperature yesterday: 68 °F

Past Weeks' High & Low Weather Summary

 TemperatureHumidityPressure
High91 °F (Oct 5, 2:15 PM)94% (Oct 16, 2:55 AM)30.18 "Hg (Oct 16, 2:55 AM)
Low45 °F (Oct 17, 6:35 AM)4% (Oct 12, 4:55 PM)29.88 "Hg (Oct 8, 5:15 PM)
Average69 °F31%29.99 "Hg
* Reported Oct 5 3:15 AM — Oct 20 3:35 AM, Victorville, Weather by CustomWeather, © 2014

Note: Actual official high and low records may vary slightly from our data, if they occured in-between our weather recording intervals... More about our weather records

Advertising

Victorville weather history for previous 24 hours

 ConditionsComfort  
Time TempWeatherWind HumidityBarometerVisibility
3:35 AM
Oct 20
57 °FClear.7 mph67%29.94 "Hg10 mi
3:15 AM59 °FClear.6 mph63%29.94 "Hg10 mi
2:55 AM59 °FClear.6 mph59%29.95 "Hg10 mi
2:35 AM59 °FClear.5 mph63%29.95 "Hg10 mi
2:15 AM61 °FClear.6 mph59%29.95 "Hg10 mi
1:55 AM61 °FClear.7 mph59%29.95 "Hg10 mi
1:35 AM57 °FClear.6 mph59%29.95 "Hg7 mi
1:15 AM59 °FClear.6 mph59%29.96 "Hg10 mi
12:55 AM61 °FClear.6 mph55%29.95 "Hg10 mi
12:35 AM63 °FClear.6 mph52%29.95 "Hg10 mi
12:15 AM63 °FClear.7 mph52%29.95 "Hg10 mi
11:55 PM
Oct 19
64 °FClear.5 mph49%29.95 "Hg10 mi
11:35 PM63 °FClear.5 mph52%29.95 "Hg10 mi
11:15 PM63 °FClear.7 mph52%29.95 "Hg10 mi
10:55 PM63 °FClear.7 mph56%29.95 "Hg7 mi
10:35 PM63 °FClear.7 mph56%29.95 "Hg10 mi
8:15 PM72 °FClear.7 mph36%29.92 "Hg10 mi
7:55 PM72 °FClear.8 mph36%29.92 "Hg10 mi
7:15 PM73 °FClear.3 mph36%29.91 "Hg10 mi
6:55 PM75 °FSunny.5 mph27%29.91 "Hg10 mi
6:15 PM79 °FSunny.3 mph21%29.89 "Hg10 mi
5:55 PM81 °FSunny.No wind20%29.89 "Hg10 mi
5:35 PM82 °FSunny.No wind19%29.88 "Hg10 mi
5:15 PM82 °FSunny.3 mph19%29.89 "Hg10 mi
4:55 PM82 °FSunny.No wind19%29.89 "Hg10 mi
4:35 PM82 °FSunny.7 mph19%29.89 "Hg10 mi
4:15 PM82 °FSunny.No wind19%29.89 "Hg10 mi
3:55 PM82 °FSunny.3 mph19%29.89 "Hg10 mi
3:35 PM82 °FSunny.No wind19%29.89 "Hg10 mi
3:15 PM82 °FSunny.No wind19%29.90 "Hg10 mi
2:55 PM82 °FSunny.3 mph19%29.90 "Hg10 mi
2:35 PM82 °FSunny.5 mph19%29.90 "Hg10 mi
2:15 PM82 °FSunny.3 mph20%29.91 "Hg10 mi
1:55 PM82 °FSunny.6 mph20%29.91 "Hg10 mi
1:35 PM82 °FSunny.7 mph20%29.92 "Hg10 mi
1:15 PM82 °FSunny.5 mph19%29.93 "Hg10 mi
12:55 PM81 °FSunny.7 mph20%29.94 "Hg10 mi
12:35 PM81 °FSunny.3 mph21%29.95 "Hg10 mi
12:15 PM79 °FSunny.3 mph23%29.95 "Hg10 mi
11:55 AM77 °FSunny.No wind24%29.96 "Hg10 mi
11:35 AM75 °FSunny.No wind24%29.97 "Hg10 mi
11:15 AM75 °FSunny.No wind22%29.97 "Hg10 mi
10:55 AM73 °FSunny.No wind23%29.98 "Hg10 mi
10:35 AM72 °FSunny.No wind25%29.98 "Hg10 mi
10:15 AM72 °FSunny.3 mph25%29.98 "Hg3 mi
9:55 AM70 °FSunny.3 mph27%29.99 "Hg5 mi
9:35 AM66 °FSunny.5 mph30%29.99 "Hg10 mi
9:15 AM64 °FSunny.6 mph32%29.98 "Hg10 mi
8:55 AM63 °FSunny.7 mph34%29.98 "Hg10 mi
8:35 AM63 °FSunny.6 mph34%29.98 "Hg10 mi
8:15 AM61 °FSunny.6 mph36%29.97 "Hg10 mi
7:55 AM57 °FClear.6 mph44%29.97 "Hg10 mi
7:35 AM55 °FClear.No wind44%29.95 "Hg10 mi
7:15 AM54 °FClear.No wind47%29.94 "Hg10 mi
6:55 AM54 °FClear.6 mph47%29.94 "Hg10 mi
6:35 AM55 °FClear.6 mph44%29.93 "Hg10 mi
6:15 AM55 °FClear.7 mph44%29.92 "Hg10 mi
5:55 AM55 °FClear.7 mph44%29.92 "Hg10 mi
5:35 AM55 °FClear.6 mph47%29.92 "Hg10 mi
5:15 AM55 °FClear.8 mph44%29.92 "Hg10 mi
4:55 AM57 °FClear.No wind41%29.92 "Hg10 mi
4:35 AM55 °FClear.No wind44%29.91 "Hg10 mi
4:15 AM55 °FClear.No wind44%29.91 "Hg10 mi
Weather by CustomWeather, © 2014

See weather overviewHow to use our weather pages